sat.trackr.live / text

‹ back to catalog

STARLINK-36902

NORAD 68043 · 2026-041D

PAYLOAD ACTIVE UNKNOWN

§ Identity

Operator
Country
US
Launch date
2026-03-02
Launch site
AFETR
Launch vehicle
Mass (kg)
RCS (m²)

Purposes: comms

External: N2YO · Heavens-Above · Gunter

§ Orbital elements

Epoch: 2026-05-25T03:37:32.707200Z

Period
94.10 min
Inclination
53.1596°
Eccentricity
0.0001208
Mean motion
15.30206518 rev/d
Perigee alt
474.4 km
Apogee alt
476.0 km
Semi-major
6,853.3 km
B*
1.0204e-3
RAAN
54.8044°
Arg perigee
80.9538°
Mean anomaly
279.1599°
Rev number
1,309

§ Raw data

STARLINK-369021 68043U 26041D   26145.15107300  .00029989  00000+0  10204-2 0  99942 68043  53.1596  54.8044 0001208  80.9538 279.1599 15.30206518 13097

JSON: /api/v1/satellites/68043 · /tle

For live sub-satellite position, see the globe view (requires WebGL).

§ Visibility from observer

Set your observer location to see the next 7 days of passes ≥ 10°. The values pass through the URL so the page stays shareable.

No JS? Fill the form by hand. The geolocation button needs JavaScript.